El Dorado, AR

10:16 AM CDT on April 20, 2018 (GMT -0500)
South Arkansas Regional At Goodwin

Weather History for KELD - February, 2013

Change the Weather History Date:

Wednesday, February 6, 2013

  Actual Average Record
Temperature  
Mean Temperature 50 °F 46 °F  
Max Temperature 57 °F 57 °F 76 °F (1963)
Min Temperature 42 °F 35 °F 15 °F (1984)
Degree Days  
Heating Degree Days 15 19  
Month to date heating degree days 99 118  
Since 1 July heating degree days 1654 1861  
Cooling Degree Days 0 0  
Month to date cooling degree days 0 0  
Year to date cooling degree days 6 2  
Moisture  
Dew Point 48 °F    
Average Humidity 90    
Maximum Humidity 100    
Minimum Humidity 80    
Precipitation  
Precipitation 0.01 in 0.16 in 1.72 in (2018)
Month to date precipitation 0.03 0.98  
Year to date precipitation 3.69 5.28  
Snow  
Snow 0.00 in - - ()
Month to date snowfall 0.0  
Since 1 July snowfall 0.1  
Snow Depth 0.00 in    
Sea Level Pressure  
Sea Level Pressure 30.07 in    
Wind  
Wind Speed 4 mph (ENE)    
Max Wind Speed 10 mph    
Max Gust Speed 13 mph    
Visibility 4 miles    
Events Fog , Rain    
T = Trace of Precipitation, MM = Missing Value Source: NWS Daily Summary

Daily Weather History Graph

Daily Weather History Graph

Search for Another Location

Airport or City:

Astronomy

Feb. 06, 2013 Rise Set
Actual Time 7:02 AM CST 5:48 PM CST
Civil Twilight 6:37 AM CST 6:13 PM CST
Nautical Twilight 6:07 AM CST 6:43 PM CST
Astronomical Twilight 5:38 AM CST 7:12 PM CST
Moon 3:41 AM CST (2/6) 2:12 PM CST (2/6)
Length of Visible Light 11h 36m
Length of Day
10h 45m
Waning Crescent, 17% of the Moon is Illuminated
Feb 6
Waning Crescent
Feb 10
New
Feb 17
First Quarter
Feb 25
Full
Mar 4
Last Quarter

Hourly Weather History & Observations

Time (CST) Temp. Windchill Dew Point Humidity Pressure Visibility Wind Dir Wind Speed Gust Speed Precip Events Conditions
12:11 AM 46.4 °F - 44.6 °F 93% 30.07 in 2.5 mi Calm Calm - N/A   Scattered Clouds
12:13 AM 46.4 °F - 44.6 °F 93% 30.07 in 1.2 mi Calm Calm - N/A   Mostly Cloudy
12:23 AM 44.6 °F - 42.8 °F 93% 30.07 in 4.0 mi Calm Calm - N/A   Mostly Cloudy
12:53 AM 42.8 °F - 41.0 °F 93% 30.06 in 8.0 mi Calm Calm - N/A   Overcast
1:00 AM 44.6 °F - 42.8 °F 93% 30.06 in 1.0 mi Calm Calm - N/A   Mist
1:09 AM 42.8 °F - 41.0 °F 93% 30.06 in 4.0 mi Calm Calm - N/A   Overcast
1:18 AM 42.8 °F - 41.0 °F 93% 30.06 in 1.2 mi Calm Calm - N/A   Overcast
1:22 AM 42.8 °F - 41.0 °F 93% 30.06 in 0.5 mi Calm Calm - N/A Fog Fog
1:29 AM 42.8 °F - 41.0 °F 93% 30.06 in 0.2 mi Calm Calm - N/A Fog Fog
1:53 AM 42.1 °F - 42.1 °F 100% 30.06 in 0.5 mi Calm Calm - N/A Fog Fog
2:01 AM 42.8 °F - 41.0 °F 93% 30.07 in 0.2 mi Calm Calm - N/A Fog Fog
2:53 AM 43.0 °F - 43.0 °F 100% 30.06 in 0.2 mi Calm Calm - N/A Fog Fog
3:53 AM 45.0 °F - 45.0 °F 100% 30.06 in 0.2 mi Calm Calm - N/A Fog Fog
4:53 AM 45.0 °F - 45.0 °F 100% 30.10 in 0.2 mi Calm Calm - N/A Fog Fog
5:53 AM 45.0 °F 43.5 °F 44.1 °F 97% 30.11 in 0.2 mi ENE 3.5 mph - N/A Fog Fog
6:23 AM 44.6 °F 43.1 °F 44.6 °F 100% 30.12 in 0.2 mi NE 3.5 mph - N/A Fog Fog
6:53 AM 46.4 °F 41.9 °F 44.6 °F 93% 30.09 in 0.2 mi NE 9.2 mph - N/A Fog Fog
7:53 AM 48.9 °F - 48.0 °F 97% 30.11 in 0.2 mi East 4.6 mph - N/A Fog Fog
8:48 AM 51.8 °F - 51.8 °F 100% 30.14 in 0.8 mi East 4.6 mph - N/A   Overcast
8:53 AM 51.1 °F - 50.0 °F 96% 30.14 in 0.8 mi East 4.6 mph - N/A   Overcast
9:01 AM 51.8 °F - 50.0 °F 94% 30.15 in 1.2 mi East 4.6 mph - N/A   Overcast
9:16 AM 51.8 °F - 50.0 °F 94% 30.16 in 2.0 mi East 5.8 mph - N/A   Overcast
9:51 AM 51.8 °F - 51.8 °F 100% 30.15 in 3.0 mi East 6.9 mph - N/A   Overcast
9:53 AM 52.0 °F - 51.1 °F 97% 30.15 in 4.0 mi East 6.9 mph - N/A   Overcast
10:01 AM 51.8 °F - 51.8 °F 100% 30.15 in 4.0 mi East 4.6 mph - N/A   Overcast
10:22 AM 51.8 °F - 51.8 °F 100% 30.16 in 4.0 mi East 4.6 mph - N/A   Overcast
10:53 AM 54.0 °F - 52.0 °F 93% 30.15 in 5.0 mi East 4.6 mph - N/A   Overcast
11:20 AM 53.6 °F - 51.8 °F 94% 30.14 in 7.0 mi East 6.9 mph - N/A   Overcast
11:53 AM 54.0 °F - 51.1 °F 90% 30.13 in 8.0 mi East 5.8 mph - N/A   Overcast
12:46 PM 55.4 °F - 51.8 °F 88% 30.10 in 7.0 mi East 10.4 mph - N/A   Mostly Cloudy
12:53 PM 55.0 °F - 51.1 °F 86% 30.09 in 8.0 mi East 6.9 mph - N/A   Scattered Clouds
1:40 PM 57.2 °F - 51.8 °F 82% 30.06 in 8.0 mi ENE 9.2 mph - N/A   Mostly Cloudy
1:48 PM 57.2 °F - 51.8 °F 82% 30.06 in 8.0 mi East 8.1 mph - N/A   Mostly Cloudy
1:53 PM 57.0 °F - 51.1 °F 81% 30.06 in 8.0 mi ESE 8.1 mph - N/A   Mostly Cloudy
2:49 PM 57.2 °F - 51.8 °F 82% 30.04 in 9.0 mi East 6.9 mph - N/A   Overcast
2:53 PM 57.0 °F - 51.1 °F 81% 30.04 in 9.0 mi ENE 5.8 mph - N/A   Overcast
3:16 PM 57.2 °F - 50.0 °F 77% 30.03 in 10.0 mi ENE 6.9 mph - N/A   Scattered Clouds
3:30 PM 57.2 °F - 51.8 °F 82% 30.03 in 10.0 mi NE 4.6 mph - N/A   Mostly Cloudy
3:53 PM 57.0 °F - 51.1 °F 81% 30.01 in 10.0 mi NE 5.8 mph - N/A   Overcast
4:53 PM 57.0 °F - 51.1 °F 81% 30.04 in 10.0 mi Calm Calm - N/A   Overcast
5:53 PM 55.0 °F - 52.0 °F 89% 30.04 in 7.0 mi NNE 3.5 mph - 0.00 in Rain Light Rain
6:53 PM 54.0 °F - 52.0 °F 93% 30.02 in 7.0 mi NE 4.6 mph - 0.01 in   Overcast
7:53 PM 54.0 °F - 52.0 °F 93% 30.01 in 7.0 mi NE 6.9 mph - 0.00 in Rain Light Rain
8:11 PM 53.6 °F - 51.8 °F 94% 30.01 in 6.0 mi NE 5.8 mph - 0.00 in Rain Light Rain
8:53 PM 54.0 °F - 52.0 °F 93% 30.01 in 5.0 mi ENE 5.8 mph - 0.00 in   Overcast
9:53 PM 54.0 °F - 52.0 °F 93% 30.01 in 6.0 mi NE 4.6 mph - N/A   Overcast
10:00 PM 53.6 °F - 51.8 °F 94% 30.01 in 6.0 mi NE 4.6 mph - N/A   Overcast
10:53 PM 54.0 °F - 52.0 °F 93% 30.00 in 6.0 mi NE 5.8 mph - N/A   Overcast
11:53 PM 54.0 °F - 52.0 °F 93% 29.99 in 6.0 mi Calm Calm - N/A   Overcast